Location: ?????????
(53.2086°N, 54.0693°E)
Time: 00:00:30
(UTC+00:00)

SL-16 R/B - Pass Details

Date: 08 December 2019
Orbit: 843 x 845 km, 71.0° (Epoch: 24 January)

Event Time Altitude Azimuth Distance (km) Brightness Sun altitude
Rises 13:04:19 0° 231° (SW) 3,395 7.4 -8.1°
Reaches altitude 10° 13:06:50 10° 237° (WSW) 2,464 6.3 -8.4°
Maximum altitude 13:12:18 48° 311° (NW) 1,101 3.0 -9.1°
Drops below altitude 10° 13:17:48 10° 26° (NNE) 2,479 4.2 -9.9°
Enters shadow 13:18:47 - 29° (NNE) 2,833 4.5 -10.0°
